Year,Month,Day,Hour,Minute,Value (Times are PST for temperature in C)
2009,06,29,00,00,10.90
2009,06,29,00,01,10.90
2009,06,29,00,02,10.90
2009,06,29,00,03,10.90
2009,06,29,00,04,10.90
2009,06,29,00,05,10.90
2009,06,29,00,06,10.90
2009,06,29,00,07,10.90
2009,06,29,00,08,10.90
2009,06,29,00,09,10.90
2009,06,29,00,10,10.90
2009,06,29,00,11,10.90
2009,06,29,00,12,10.90
2009,06,29,00,13,10.90
2009,06,29,00,14,10.90
2009,06,29,00,15,10.90
2009,06,29,00,16,10.90
2009,06,29,00,17,10.90
2009,06,29,00,18,10.90
2009,06,29,00,19,10.90
2009,06,29,00,20,10.90
2009,06,29,00,21,10.90
2009,06,29,00,22,10.90
2009,06,29,00,23,10.90
2009,06,29,00,24,10.90
2009,06,29,00,25,10.90
2009,06,29,00,26,10.90
2009,06,29,00,27,10.90
2009,06,29,00,28,10.90
2009,06,29,00,29,10.90
2009,06,29,00,30,10.90
2009,06,29,00,31,10.80
2009,06,29,00,32,10.80
2009,06,29,00,33,10.80
2009,06,29,00,34,10.70
2009,06,29,00,35,10.70
2009,06,29,00,36,10.60
2009,06,29,00,37,10.60
2009,06,29,00,38,10.60
2009,06,29,00,39,10.60
2009,06,29,00,40,10.60
2009,06,29,00,41,10.60
2009,06,29,00,42,10.60
2009,06,29,00,43,10.60
2009,06,29,00,44,10.60
2009,06,29,00,45,10.60
2009,06,29,00,46,10.60
2009,06,29,00,47,10.60
2009,06,29,00,48,10.60
2009,06,29,00,49,10.60
2009,06,29,00,50,10.60
2009,06,29,00,51,10.60
2009,06,29,00,52,10.60
2009,06,29,00,53,10.60
2009,06,29,00,54,10.60
2009,06,29,00,55,10.60
2009,06,29,00,56,10.60
2009,06,29,00,57,10.60
2009,06,29,00,58,10.60
2009,06,29,00,59,10.60
2009,06,29,01,00,10.60
2009,06,29,01,01,10.60
2009,06,29,01,02,10.50
2009,06,29,01,03,10.40
2009,06,29,01,04,10.40
2009,06,29,01,05,10.40
2009,06,29,01,06,10.40
2009,06,29,01,07,10.40
2009,06,29,01,08,10.40
2009,06,29,01,09,10.30
2009,06,29,01,10,10.30
2009,06,29,01,11,10.30
2009,06,29,01,12,10.30
2009,06,29,01,13,10.20
2009,06,29,01,14,10.20
2009,06,29,01,15,10.20
2009,06,29,01,16,10.10
2009,06,29,01,17,10.10
2009,06,29,01,18,10.10
2009,06,29,01,19,10.10
2009,06,29,01,20,10.10
2009,06,29,01,21,10.10
2009,06,29,01,22,10.10
2009,06,29,01,23,10.10
2009,06,29,01,24,10.10
2009,06,29,01,25,10.10
2009,06,29,01,26,10.10
2009,06,29,01,27,10.10
2009,06,29,01,28,10.10
2009,06,29,01,29,10.10
2009,06,29,01,30,10.10
2009,06,29,01,31,10.10
2009,06,29,01,32,10.10
2009,06,29,01,33,10.10
2009,06,29,01,34,10.10
2009,06,29,01,35,10.10
2009,06,29,01,36,10.00
2009,06,29,01,37,9.90
2009,06,29,01,38,9.90
2009,06,29,01,39,9.90
2009,06,29,01,40,9.90
2009,06,29,01,41,9.90
2009,06,29,01,42,9.90
2009,06,29,01,43,9.90
2009,06,29,01,44,9.90
2009,06,29,01,45,9.90
2009,06,29,01,46,9.90
2009,06,29,01,47,9.80
2009,06,29,01,48,9.80
2009,06,29,01,49,9.80
2009,06,29,01,50,9.80
2009,06,29,01,51,9.80
2009,06,29,01,52,9.80
2009,06,29,01,53,9.80
2009,06,29,01,54,9.80
2009,06,29,01,55,9.80
2009,06,29,01,56,9.80
2009,06,29,01,57,9.80
2009,06,29,01,58,9.80
2009,06,29,01,59,9.80
2009,06,29,02,00,9.80
2009,06,29,02,01,9.80
2009,06,29,02,02,9.80
2009,06,29,02,03,9.80
2009,06,29,02,04,9.80
2009,06,29,02,05,9.80
2009,06,29,02,06,9.80
2009,06,29,02,07,9.80
2009,06,29,02,08,9.80
2009,06,29,02,09,9.80
2009,06,29,02,10,9.80
2009,06,29,02,11,9.80
2009,06,29,02,12,9.80
2009,06,29,02,13,9.80
2009,06,29,02,14,9.80
2009,06,29,02,15,9.80
2009,06,29,02,16,9.80
2009,06,29,02,17,9.80
2009,06,29,02,18,9.80
2009,06,29,02,19,9.70
2009,06,29,02,20,9.70
2009,06,29,02,21,9.70
2009,06,29,02,22,9.70
2009,06,29,02,23,9.70
2009,06,29,02,24,9.70
2009,06,29,02,25,9.70
2009,06,29,02,26,9.70
2009,06,29,02,27,9.70
2009,06,29,02,28,9.70
2009,06,29,02,29,9.60
2009,06,29,02,30,9.60
2009,06,29,02,31,9.60
2009,06,29,02,32,9.60
2009,06,29,02,33,9.50
2009,06,29,02,34,9.50
2009,06,29,02,35,9.50
2009,06,29,02,36,9.50
2009,06,29,02,37,9.50
2009,06,29,02,38,9.50
2009,06,29,02,39,9.50
2009,06,29,02,40,9.50
2009,06,29,02,41,9.50
2009,06,29,02,42,9.50
2009,06,29,02,43,9.50
2009,06,29,02,44,9.50
2009,06,29,02,45,9.50
2009,06,29,02,46,9.50
2009,06,29,02,47,9.50
2009,06,29,02,48,9.40
2009,06,29,02,49,9.40
2009,06,29,02,50,9.40
2009,06,29,02,51,9.40
2009,06,29,02,52,9.40
2009,06,29,02,53,9.40
2009,06,29,02,54,9.40
2009,06,29,02,55,9.40
2009,06,29,02,56,9.40
2009,06,29,02,57,9.30
2009,06,29,02,58,9.30
2009,06,29,02,59,9.30
2009,06,29,03,00,9.30
2009,06,29,03,01,9.30
2009,06,29,03,02,9.30
2009,06,29,03,03,9.20
2009,06,29,03,04,9.20
2009,06,29,03,05,9.20
2009,06,29,03,06,9.20
2009,06,29,03,07,9.20
2009,06,29,03,08,9.20
2009,06,29,03,09,9.10
2009,06,29,03,10,9.10
2009,06,29,03,11,9.00
2009,06,29,03,12,9.00
2009,06,29,03,13,9.00
2009,06,29,03,14,8.90
2009,06,29,03,15,8.90
2009,06,29,03,16,8.90
2009,06,29,03,17,8.80
2009,06,29,03,18,8.80
2009,06,29,03,19,8.80
2009,06,29,03,20,8.70
2009,06,29,03,21,8.70
2009,06,29,03,22,8.70
2009,06,29,03,23,8.70
2009,06,29,03,24,8.70
2009,06,29,03,25,8.70
2009,06,29,03,26,8.70
2009,06,29,03,27,8.70
2009,06,29,03,28,8.70
2009,06,29,03,29,8.60
2009,06,29,03,30,8.60
2009,06,29,03,31,8.60
2009,06,29,03,32,8.60
2009,06,29,03,33,8.50
2009,06,29,03,34,8.50
2009,06,29,03,35,8.50
2009,06,29,03,36,8.40
2009,06,29,03,37,8.40
2009,06,29,03,38,8.40
2009,06,29,03,39,8.30
2009,06,29,03,40,8.30
2009,06,29,03,41,8.30
2009,06,29,03,42,8.30
2009,06,29,03,43,8.30
2009,06,29,03,44,8.30
2009,06,29,03,45,8.30
2009,06,29,03,46,8.30
2009,06,29,03,47,8.30
2009,06,29,03,48,8.30
2009,06,29,03,49,8.30
2009,06,29,03,50,8.30
2009,06,29,03,51,8.30
2009,06,29,03,52,8.30
2009,06,29,03,53,8.30
2009,06,29,03,54,8.30
2009,06,29,03,55,8.30
2009,06,29,03,56,8.30
2009,06,29,03,57,8.30
2009,06,29,03,58,8.30
2009,06,29,03,59,8.30
2009,06,29,04,00,8.30
2009,06,29,04,01,8.30
2009,06,29,04,02,8.20
2009,06,29,04,03,8.20
2009,06,29,04,04,8.20
2009,06,29,04,05,8.20
2009,06,29,04,06,8.20
2009,06,29,04,07,8.20
2009,06,29,04,08,8.20
2009,06,29,04,09,8.20
2009,06,29,04,10,8.20
2009,06,29,04,11,8.20
2009,06,29,04,12,8.10
2009,06,29,04,13,8.10
2009,06,29,04,14,8.10
2009,06,29,04,15,8.10
2009,06,29,04,16,8.10
2009,06,29,04,17,8.00
2009,06,29,04,18,8.00
2009,06,29,04,19,8.00
2009,06,29,04,20,8.00
2009,06,29,04,21,8.00
2009,06,29,04,22,8.00
2009,06,29,04,23,8.00
2009,06,29,04,24,8.00
2009,06,29,04,25,8.00
2009,06,29,04,26,7.90
2009,06,29,04,27,7.90
2009,06,29,04,28,7.90
2009,06,29,04,29,7.90
2009,06,29,04,30,7.90
2009,06,29,04,31,7.90
2009,06,29,04,32,7.90
2009,06,29,04,33,7.90
2009,06,29,04,34,7.90
2009,06,29,04,35,7.90
2009,06,29,04,36,7.90
2009,06,29,04,37,7.90
2009,06,29,04,38,7.90
2009,06,29,04,39,7.90
2009,06,29,04,40,7.90
2009,06,29,04,41,7.90
2009,06,29,04,42,7.90
2009,06,29,04,43,7.90
2009,06,29,04,44,7.90
2009,06,29,04,45,7.90
2009,06,29,04,46,7.80
2009,06,29,04,47,7.80
2009,06,29,04,48,7.80
2009,06,29,04,49,7.80
2009,06,29,04,50,7.80
2009,06,29,04,51,7.80
2009,06,29,04,52,7.80
2009,06,29,04,53,7.80
2009,06,29,04,54,7.80
2009,06,29,04,55,7.80
2009,06,29,04,56,7.80
2009,06,29,04,57,7.80
2009,06,29,04,58,7.80
2009,06,29,04,59,7.80
2009,06,29,05,00,7.80
2009,06,29,05,01,7.80
2009,06,29,05,02,7.80
2009,06,29,05,03,7.80
2009,06,29,05,04,7.80
2009,06,29,05,05,7.80
2009,06,29,05,06,7.70
2009,06,29,05,07,7.70
2009,06,29,05,08,7.70
2009,06,29,05,09,7.70
2009,06,29,05,10,7.70
2009,06,29,05,11,7.70
2009,06,29,05,12,7.70
2009,06,29,05,13,7.70
2009,06,29,05,14,7.70
2009,06,29,05,15,7.70
2009,06,29,05,16,7.70
2009,06,29,05,17,7.70
2009,06,29,05,18,7.70
2009,06,29,05,19,7.70
2009,06,29,05,20,7.80
2009,06,29,05,21,7.80
2009,06,29,05,22,7.80
2009,06,29,05,23,7.80
2009,06,29,05,24,7.80
2009,06,29,05,25,7.80
2009,06,29,05,26,7.70
2009,06,29,05,27,7.70
2009,06,29,05,28,7.70
2009,06,29,05,29,7.70
2009,06,29,05,30,7.70
2009,06,29,05,31,7.70
2009,06,29,05,32,7.60
2009,06,29,05,33,7.60
2009,06,29,05,34,7.60
2009,06,29,05,35,7.60
2009,06,29,05,36,7.60
2009,06,29,05,37,7.60
2009,06,29,05,38,7.70
2009,06,29,05,39,7.70
2009,06,29,05,40,7.70
2009,06,29,05,41,7.70
2009,06,29,05,42,7.70
2009,06,29,05,43,7.70
2009,06,29,05,44,7.70
2009,06,29,05,45,7.70
2009,06,29,05,46,7.70
2009,06,29,05,47,7.60
2009,06,29,05,48,7.60
2009,06,29,05,49,7.70
2009,06,29,05,50,7.70
2009,06,29,05,51,7.70
2009,06,29,05,52,7.70
2009,06,29,05,53,7.70
2009,06,29,05,54,7.80
2009,06,29,05,55,7.80
2009,06,29,05,56,7.80
2009,06,29,05,57,7.80
2009,06,29,05,58,7.80
2009,06,29,05,59,7.80
2009,06,29,06,00,7.90
2009,06,29,06,01,7.90
2009,06,29,06,02,7.90
2009,06,29,06,03,7.90
2009,06,29,06,04,7.90
2009,06,29,06,05,7.90
2009,06,29,06,06,7.90
2009,06,29,06,07,8.00
2009,06,29,06,08,8.00
2009,06,29,06,09,8.00
2009,06,29,06,10,8.00
2009,06,29,06,11,8.00
2009,06,29,06,12,8.10
2009,06,29,06,13,8.10
2009,06,29,06,14,8.10
2009,06,29,06,15,8.10
2009,06,29,06,16,8.20
2009,06,29,06,17,8.20
2009,06,29,06,18,8.20
2009,06,29,06,19,8.20
2009,06,29,06,20,8.30
2009,06,29,06,21,8.40
2009,06,29,06,22,8.40
2009,06,29,06,23,8.50
2009,06,29,06,24,8.60
2009,06,29,06,25,8.70
2009,06,29,06,26,8.70
2009,06,29,06,27,8.80
2009,06,29,06,28,8.90
2009,06,29,06,29,8.90
2009,06,29,06,30,9.00
2009,06,29,06,31,9.10
2009,06,29,06,32,9.10
2009,06,29,06,33,9.20
2009,06,29,06,34,9.20
2009,06,29,06,35,9.20
2009,06,29,06,36,9.30
2009,06,29,06,37,9.30
2009,06,29,06,38,9.40
2009,06,29,06,39,9.40
2009,06,29,06,40,9.50
2009,06,29,06,41,9.60
2009,06,29,06,42,9.70
2009,06,29,06,43,9.70
2009,06,29,06,44,9.80
2009,06,29,06,45,9.80
2009,06,29,06,46,9.90
2009,06,29,06,47,9.90
2009,06,29,06,48,9.90
2009,06,29,06,49,10.00
2009,06,29,06,50,10.10
2009,06,29,06,51,10.10
2009,06,29,06,52,10.20
2009,06,29,06,53,10.30
2009,06,29,06,54,10.40
2009,06,29,06,55,10.40
2009,06,29,06,56,10.40
2009,06,29,06,57,10.50
2009,06,29,06,58,10.60
2009,06,29,06,59,10.60
2009,06,29,07,00,10.60
2009,06,29,07,01,10.60
2009,06,29,07,02,10.70
2009,06,29,07,03,10.70
2009,06,29,07,04,10.80
2009,06,29,07,05,10.80
2009,06,29,07,06,10.90
2009,06,29,07,07,11.00
2009,06,29,07,08,11.10
2009,06,29,07,09,11.20
2009,06,29,07,10,11.30
2009,06,29,07,11,11.40
2009,06,29,07,12,11.50
2009,06,29,07,13,11.60
2009,06,29,07,14,11.70
2009,06,29,07,15,11.80
2009,06,29,07,16,11.90
2009,06,29,07,17,12.00
2009,06,29,07,18,12.10
2009,06,29,07,19,12.30
2009,06,29,07,20,12.40
2009,06,29,07,21,12.50
2009,06,29,07,22,12.60
2009,06,29,07,23,12.70
2009,06,29,07,24,12.80
2009,06,29,07,25,12.80
2009,06,29,07,26,12.90
2009,06,29,07,27,13.00
2009,06,29,07,28,13.00
2009,06,29,07,29,13.00
2009,06,29,07,30,13.10
2009,06,29,07,31,13.10
2009,06,29,07,32,13.10
2009,06,29,07,33,13.20
2009,06,29,07,34,13.20
2009,06,29,07,35,13.30
2009,06,29,07,36,13.30
2009,06,29,07,37,13.40
2009,06,29,07,38,13.50
2009,06,29,07,39,13.50
2009,06,29,07,40,13.60
2009,06,29,07,41,13.60
2009,06,29,07,42,13.70
2009,06,29,07,43,13.70
2009,06,29,07,44,13.70
2009,06,29,07,45,13.80
2009,06,29,07,46,13.90
2009,06,29,07,47,14.00
2009,06,29,07,48,14.10
2009,06,29,07,49,14.10
2009,06,29,07,50,14.20
2009,06,29,07,51,14.20
2009,06,29,07,52,14.30
2009,06,29,07,53,14.40
2009,06,29,07,54,14.50
2009,06,29,07,55,14.60
2009,06,29,07,56,14.60
2009,06,29,07,57,14.70
2009,06,29,07,58,14.80
2009,06,29,07,59,14.80
2009,06,29,08,00,14.90
2009,06,29,08,01,15.00
2009,06,29,08,02,15.10
2009,06,29,08,03,15.10
2009,06,29,08,04,15.00
2009,06,29,08,05,15.00
2009,06,29,08,06,15.00
2009,06,29,08,07,15.00
2009,06,29,08,08,15.00
2009,06,29,08,09,15.00
2009,06,29,08,10,15.00
2009,06,29,08,11,15.00
2009,06,29,08,12,15.10
2009,06,29,08,13,15.10
2009,06,29,08,14,15.10
2009,06,29,08,15,15.10
2009,06,29,08,16,15.10
2009,06,29,08,17,15.20
2009,06,29,08,18,15.30
2009,06,29,08,19,15.30
2009,06,29,08,20,15.30
2009,06,29,08,21,15.30
2009,06,29,08,22,15.40
2009,06,29,08,23,15.40
2009,06,29,08,24,15.40
2009,06,29,08,25,15.40
2009,06,29,08,26,15.50
2009,06,29,08,27,15.50
2009,06,29,08,28,15.50
2009,06,29,08,29,15.50
2009,06,29,08,30,15.50
2009,06,29,08,31,15.50
2009,06,29,08,32,15.60
2009,06,29,08,33,15.60
2009,06,29,08,34,15.70
2009,06,29,08,35,15.70
2009,06,29,08,36,15.70
2009,06,29,08,37,15.70
2009,06,29,08,38,15.80
2009,06,29,08,39,15.80
2009,06,29,08,40,15.90
2009,06,29,08,41,16.00
2009,06,29,08,42,16.10
2009,06,29,08,43,16.10
2009,06,29,08,44,16.20
2009,06,29,08,45,16.20
2009,06,29,08,46,16.20
2009,06,29,08,47,16.20
2009,06,29,08,48,16.20
2009,06,29,08,49,16.20
2009,06,29,08,50,16.30
2009,06,29,08,51,16.30
2009,06,29,08,52,16.40
2009,06,29,08,53,16.40
2009,06,29,08,54,16.40
2009,06,29,08,55,16.30
2009,06,29,08,56,16.30
2009,06,29,08,57,16.20
2009,06,29,08,58,16.20
2009,06,29,08,59,16.20
2009,06,29,09,00,16.10
2009,06,29,09,01,15.90
2009,06,29,09,02,15.70
2009,06,29,09,03,15.60
2009,06,29,09,04,15.50
2009,06,29,09,05,15.60
2009,06,29,09,06,15.70
2009,06,29,09,07,15.60
2009,06,29,09,08,15.60
2009,06,29,09,09,15.60
2009,06,29,09,10,15.60
2009,06,29,09,11,15.60
2009,06,29,09,12,15.70
2009,06,29,09,13,15.80
2009,06,29,09,14,15.80
2009,06,29,09,15,15.90
2009,06,29,09,16,16.00
2009,06,29,09,17,16.10
2009,06,29,09,18,16.10
2009,06,29,09,19,16.10
2009,06,29,09,20,16.10
2009,06,29,09,21,16.10
2009,06,29,09,22,16.10
2009,06,29,09,23,16.10
2009,06,29,09,24,16.00
2009,06,29,09,25,15.90
2009,06,29,09,26,15.80
2009,06,29,09,27,15.90
2009,06,29,09,28,15.90
2009,06,29,09,29,16.00
2009,06,29,09,30,16.10
2009,06,29,09,31,16.10
2009,06,29,09,32,15.90
2009,06,29,09,33,15.90
2009,06,29,09,34,16.00
2009,06,29,09,35,16.10
2009,06,29,09,36,16.20
2009,06,29,09,37,16.30
2009,06,29,09,38,16.40
2009,06,29,09,39,16.40
2009,06,29,09,40,16.40
2009,06,29,09,41,16.40
2009,06,29,09,42,16.40
2009,06,29,09,43,16.40
2009,06,29,09,44,16.30
2009,06,29,09,45,16.20
2009,06,29,09,46,16.20
2009,06,29,09,47,16.20
2009,06,29,09,48,16.20
2009,06,29,09,49,16.20
2009,06,29,09,50,16.10
2009,06,29,09,51,16.10
2009,06,29,09,52,16.30
2009,06,29,09,53,16.40
2009,06,29,09,54,16.40
2009,06,29,09,55,16.40
2009,06,29,09,56,16.30
2009,06,29,09,57,16.30
2009,06,29,09,58,16.40
2009,06,29,09,59,16.40
2009,06,29,10,00,16.60
2009,06,29,10,01,16.70
2009,06,29,10,02,16.70
2009,06,29,10,03,16.80
2009,06,29,10,04,16.90
2009,06,29,10,05,16.80
2009,06,29,10,06,16.80
2009,06,29,10,07,16.80
2009,06,29,10,08,16.70
2009,06,29,10,09,16.60
2009,06,29,10,10,16.50
2009,06,29,10,11,16.40
2009,06,29,10,12,16.40
2009,06,29,10,13,16.30
2009,06,29,10,14,16.40
2009,06,29,10,15,16.40
2009,06,29,10,16,16.40
2009,06,29,10,17,16.40
2009,06,29,10,18,16.40
2009,06,29,10,19,16.40
2009,06,29,10,20,16.60
2009,06,29,10,21,16.80
2009,06,29,10,22,16.90
2009,06,29,10,23,17.10
2009,06,29,10,24,17.10
2009,06,29,10,25,17.00
2009,06,29,10,26,16.90
2009,06,29,10,27,16.80
2009,06,29,10,28,16.60
2009,06,29,10,29,16.30
2009,06,29,10,30,16.10
2009,06,29,10,31,16.10
2009,06,29,10,32,16.10
2009,06,29,10,33,16.10
2009,06,29,10,34,16.10
2009,06,29,10,35,16.10
2009,06,29,10,36,16.20
2009,06,29,10,37,16.30
2009,06,29,10,38,16.30
2009,06,29,10,39,16.30
2009,06,29,10,40,16.40
2009,06,29,10,41,16.40
2009,06,29,10,42,16.40
2009,06,29,10,43,16.30
2009,06,29,10,44,16.30
2009,06,29,10,45,16.40
2009,06,29,10,46,16.40
2009,06,29,10,47,16.40
2009,06,29,10,48,16.60
2009,06,29,10,49,16.60
2009,06,29,10,50,16.80
2009,06,29,10,51,16.90
2009,06,29,10,52,16.80
2009,06,29,10,53,16.90
2009,06,29,10,54,16.90
2009,06,29,10,55,16.90
2009,06,29,10,56,17.00
2009,06,29,10,57,16.90
2009,06,29,10,58,16.80
2009,06,29,10,59,16.70
2009,06,29,11,00,16.70
2009,06,29,11,01,16.80
2009,06,29,11,02,16.90
2009,06,29,11,03,17.00
2009,06,29,11,04,17.10
2009,06,29,11,05,17.20
2009,06,29,11,06,17.10
2009,06,29,11,07,16.90
2009,06,29,11,08,16.80
2009,06,29,11,09,16.80
2009,06,29,11,10,16.80
2009,06,29,11,11,16.80
2009,06,29,11,12,16.80
2009,06,29,11,13,16.80
2009,06,29,11,14,16.70
2009,06,29,11,15,16.70
2009,06,29,11,16,16.70
2009,06,29,11,17,16.70
2009,06,29,11,18,16.70
2009,06,29,11,19,16.90
2009,06,29,11,20,17.00
2009,06,29,11,21,17.20
2009,06,29,11,22,17.30
2009,06,29,11,23,17.30
2009,06,29,11,24,17.30
2009,06,29,11,25,17.30
2009,06,29,11,26,17.30
2009,06,29,11,27,17.30
2009,06,29,11,28,17.20
2009,06,29,11,29,17.20
2009,06,29,11,30,17.10
2009,06,29,11,31,17.20
2009,06,29,11,32,17.20
2009,06,29,11,33,17.10
2009,06,29,11,34,17.00
2009,06,29,11,35,16.90
2009,06,29,11,36,16.90
2009,06,29,11,37,16.90
2009,06,29,11,38,16.90
2009,06,29,11,39,16.90
2009,06,29,11,40,16.90
2009,06,29,11,41,17.00
2009,06,29,11,42,16.90
2009,06,29,11,43,16.90
2009,06,29,11,44,16.80
2009,06,29,11,45,16.70
2009,06,29,11,46,16.70
2009,06,29,11,47,16.60
2009,06,29,11,48,16.60
2009,06,29,11,49,16.60
2009,06,29,11,50,16.70
2009,06,29,11,51,16.80
2009,06,29,11,52,16.90
2009,06,29,11,53,16.90
2009,06,29,11,54,16.80
2009,06,29,11,55,17.00
2009,06,29,11,56,17.10
2009,06,29,11,57,17.30
2009,06,29,11,58,17.20
2009,06,29,11,59,17.20
2009,06,29,12,00,17.30
2009,06,29,12,01,17.30
2009,06,29,12,02,17.30
2009,06,29,12,03,17.10
2009,06,29,12,04,17.10
2009,06,29,12,05,17.20
2009,06,29,12,06,17.30
2009,06,29,12,07,17.30
2009,06,29,12,08,17.30
2009,06,29,12,09,17.20
2009,06,29,12,10,17.00
2009,06,29,12,11,16.90
2009,06,29,12,12,16.90
2009,06,29,12,13,17.00
2009,06,29,12,14,17.00
2009,06,29,12,15,17.20
2009,06,29,12,16,17.30
2009,06,29,12,17,17.30
2009,06,29,12,18,17.20
2009,06,29,12,19,17.00
2009,06,29,12,20,17.00
2009,06,29,12,21,17.10
2009,06,29,12,22,17.20
2009,06,29,12,23,17.30
2009,06,29,12,24,17.00
2009,06,29,12,25,16.70
2009,06,29,12,26,16.80
2009,06,29,12,27,17.00
2009,06,29,12,28,17.10
2009,06,29,12,29,17.00
2009,06,29,12,30,16.90
2009,06,29,12,31,17.00
2009,06,29,12,32,17.00
2009,06,29,12,33,17.00
2009,06,29,12,34,16.80
2009,06,29,12,35,16.70
2009,06,29,12,36,16.80
2009,06,29,12,37,17.00
2009,06,29,12,38,17.10
2009,06,29,12,39,17.00
2009,06,29,12,40,17.10
2009,06,29,12,41,17.20
2009,06,29,12,42,17.30
2009,06,29,12,43,17.30
2009,06,29,12,44,17.20
2009,06,29,12,45,17.00
2009,06,29,12,46,17.10
2009,06,29,12,47,17.00
2009,06,29,12,48,16.70
2009,06,29,12,49,16.50
2009,06,29,12,50,16.70
2009,06,29,12,51,16.70
2009,06,29,12,52,16.80
2009,06,29,12,53,16.90
2009,06,29,12,54,17.10
2009,06,29,12,55,17.00
2009,06,29,12,56,17.00
2009,06,29,12,57,17.10
2009,06,29,12,58,17.30
2009,06,29,12,59,17.30
2009,06,29,13,00,17.30
2009,06,29,13,01,17.30
2009,06,29,13,02,17.50
2009,06,29,13,03,17.60
2009,06,29,13,04,17.60
2009,06,29,13,05,17.50
2009,06,29,13,06,17.60
2009,06,29,13,07,17.60
2009,06,29,13,08,17.60
2009,06,29,13,09,17.80
2009,06,29,13,10,17.90
2009,06,29,13,11,18.20
2009,06,29,13,12,18.20
2009,06,29,13,13,18.00
2009,06,29,13,14,17.60
2009,06,29,13,15,17.40
2009,06,29,13,16,17.30
2009,06,29,13,17,17.20
2009,06,29,13,18,17.10
2009,06,29,13,19,17.00
2009,06,29,13,20,17.10
2009,06,29,13,21,17.20
2009,06,29,13,22,17.30
2009,06,29,13,23,17.30
2009,06,29,13,24,17.40
2009,06,29,13,25,17.50
2009,06,29,13,26,17.60
2009,06,29,13,27,17.60
2009,06,29,13,28,17.70
2009,06,29,13,29,17.80
2009,06,29,13,30,18.00
2009,06,29,13,31,18.10
2009,06,29,13,32,18.10
2009,06,29,13,33,18.30
2009,06,29,13,34,18.40
2009,06,29,13,35,18.50
2009,06,29,13,36,18.50
2009,06,29,13,37,18.60
2009,06,29,13,38,18.60
2009,06,29,13,39,18.40
2009,06,29,13,40,18.20
2009,06,29,13,41,18.10
2009,06,29,13,42,18.10
2009,06,29,13,43,18.20
2009,06,29,13,44,18.20
2009,06,29,13,45,18.30
2009,06,29,13,46,18.50
2009,06,29,13,47,18.70
2009,06,29,13,48,18.70
2009,06,29,13,49,18.70
2009,06,29,13,50,18.60
2009,06,29,13,51,18.50
2009,06,29,13,52,18.50
2009,06,29,13,53,18.50
2009,06,29,13,54,18.50
2009,06,29,13,55,18.50
2009,06,29,13,56,18.60
2009,06,29,13,57,18.70
2009,06,29,13,58,18.50
2009,06,29,13,59,18.30
2009,06,29,14,00,18.20
2009,06,29,14,01,18.20
2009,06,29,14,02,18.30
2009,06,29,14,03,18.30
2009,06,29,14,04,18.30
2009,06,29,14,05,18.40
2009,06,29,14,06,18.50
2009,06,29,14,07,18.70
2009,06,29,14,08,18.70
2009,06,29,14,09,18.70
2009,06,29,14,10,18.60
2009,06,29,14,11,18.70
2009,06,29,14,12,18.60
2009,06,29,14,13,18.50
2009,06,29,14,14,18.40
2009,06,29,14,15,18.50
2009,06,29,14,16,18.60
2009,06,29,14,17,18.60
2009,06,29,14,18,18.60
2009,06,29,14,19,18.40
2009,06,29,14,20,18.30
2009,06,29,14,21,18.20
2009,06,29,14,22,18.30
2009,06,29,14,23,18.40
2009,06,29,14,24,18.50
2009,06,29,14,25,18.60
2009,06,29,14,26,18.70
2009,06,29,14,27,18.70
2009,06,29,14,28,18.50
2009,06,29,14,29,18.30
2009,06,29,14,30,18.30
2009,06,29,14,31,18.40
2009,06,29,14,32,18.40
2009,06,29,14,33,18.40
2009,06,29,14,34,18.50
2009,06,29,14,35,18.60
2009,06,29,14,36,18.70
2009,06,29,14,37,18.90
2009,06,29,14,38,18.90
2009,06,29,14,39,18.90
2009,06,29,14,40,18.90
2009,06,29,14,41,19.00
2009,06,29,14,42,19.10
2009,06,29,14,43,19.20
2009,06,29,14,44,19.10
2009,06,29,14,45,19.10
2009,06,29,14,46,19.20
2009,06,29,14,47,19.20
2009,06,29,14,48,19.30
2009,06,29,14,49,19.40
2009,06,29,14,50,19.60
2009,06,29,14,51,19.90
2009,06,29,14,52,19.90
2009,06,29,14,53,20.00
2009,06,29,14,54,20.20
2009,06,29,14,55,20.30
2009,06,29,14,56,20.40
2009,06,29,14,57,20.60
2009,06,29,14,58,20.70
2009,06,29,14,59,20.90
2009,06,29,15,00,21.10
2009,06,29,15,01,21.20
2009,06,29,15,02,21.30
2009,06,29,15,03,21.30
2009,06,29,15,04,21.20
2009,06,29,15,05,21.20
2009,06,29,15,06,21.20
2009,06,29,15,07,21.00
2009,06,29,15,08,21.10
2009,06,29,15,09,21.30
2009,06,29,15,10,21.30
2009,06,29,15,11,21.30
2009,06,29,15,12,21.30
2009,06,29,15,13,21.40
2009,06,29,15,14,21.60
2009,06,29,15,15,21.70
2009,06,29,15,16,21.60
2009,06,29,15,17,21.60
2009,06,29,15,18,21.70
2009,06,29,15,19,21.70
2009,06,29,15,20,21.60
2009,06,29,15,21,21.60
2009,06,29,15,22,21.70
2009,06,29,15,23,21.80
2009,06,29,15,24,22.00
2009,06,29,15,25,21.90
2009,06,29,15,26,21.90
2009,06,29,15,27,21.90
2009,06,29,15,28,22.00
2009,06,29,15,29,21.80
2009,06,29,15,30,21.60
2009,06,29,15,31,21.50
2009,06,29,15,32,21.40
2009,06,29,15,33,21.40
2009,06,29,15,34,21.30
2009,06,29,15,35,21.30
2009,06,29,15,36,21.40
2009,06,29,15,37,21.60
2009,06,29,15,38,21.40
2009,06,29,15,39,21.30
2009,06,29,15,40,21.30
2009,06,29,15,41,21.30
2009,06,29,15,42,21.30
2009,06,29,15,43,21.30
2009,06,29,15,44,21.50
2009,06,29,15,45,21.60
2009,06,29,15,46,21.60
2009,06,29,15,47,21.70
2009,06,29,15,48,21.90
2009,06,29,15,49,22.10
2009,06,29,15,50,22.20
2009,06,29,15,51,22.20
2009,06,29,15,52,22.10
2009,06,29,15,53,22.10
2009,06,29,15,54,22.00
2009,06,29,15,55,22.00
2009,06,29,15,56,21.90
2009,06,29,15,57,21.80
2009,06,29,15,58,21.70
2009,06,29,15,59,21.70
2009,06,29,16,00,21.70
2009,06,29,16,01,21.70
2009,06,29,16,02,21.70
2009,06,29,16,03,21.70
2009,06,29,16,04,21.70
2009,06,29,16,05,21.90
2009,06,29,16,06,21.90
2009,06,29,16,07,21.90
2009,06,29,16,08,21.90
2009,06,29,16,09,21.90
2009,06,29,16,10,21.80
2009,06,29,16,11,21.80
2009,06,29,16,12,21.80
2009,06,29,16,13,22.00
2009,06,29,16,14,22.00
2009,06,29,16,15,22.00
2009,06,29,16,16,22.00
2009,06,29,16,17,21.80
2009,06,29,16,18,21.80
2009,06,29,16,19,21.90
2009,06,29,16,20,21.90
2009,06,29,16,21,21.90
2009,06,29,16,22,21.80
2009,06,29,16,23,21.80
2009,06,29,16,24,21.80
2009,06,29,16,25,21.70
2009,06,29,16,26,21.70
2009,06,29,16,27,21.80
2009,06,29,16,28,21.80
2009,06,29,16,29,21.80
2009,06,29,16,30,21.60
2009,06,29,16,31,21.60
2009,06,29,16,32,21.60
2009,06,29,16,33,21.60
2009,06,29,16,34,21.60
2009,06,29,16,35,21.60
2009,06,29,16,36,21.60
2009,06,29,16,37,21.60
2009,06,29,16,38,21.60
2009,06,29,16,39,21.60
2009,06,29,16,40,21.60
2009,06,29,16,41,21.60
2009,06,29,16,42,21.60
2009,06,29,16,43,21.60
2009,06,29,16,44,21.80
2009,06,29,16,45,22.00
2009,06,29,16,46,22.00
2009,06,29,16,47,21.80
2009,06,29,16,48,21.80
2009,06,29,16,49,21.90
2009,06,29,16,50,21.90
2009,06,29,16,51,21.90
2009,06,29,16,52,21.90
2009,06,29,16,53,21.80
2009,06,29,16,54,21.70
2009,06,29,16,55,21.80
2009,06,29,16,56,21.80
2009,06,29,16,57,21.80
2009,06,29,16,58,21.90
2009,06,29,16,59,22.00
2009,06,29,17,00,22.10
2009,06,29,17,01,22.20
2009,06,29,17,02,22.20
2009,06,29,17,03,22.30
2009,06,29,17,04,22.30
2009,06,29,17,05,22.30
2009,06,29,17,06,22.40
2009,06,29,17,07,22.40
2009,06,29,17,08,22.50
2009,06,29,17,09,22.60
2009,06,29,17,10,22.60
2009,06,29,17,11,22.40
2009,06,29,17,12,22.30
2009,06,29,17,13,22.10
2009,06,29,17,14,22.00
2009,06,29,17,15,22.00
2009,06,29,17,16,22.10
2009,06,29,17,17,22.10
2009,06,29,17,18,22.00
2009,06,29,17,19,22.00
2009,06,29,17,20,22.10
2009,06,29,17,21,22.10
2009,06,29,17,22,22.20
2009,06,29,17,23,22.20
2009,06,29,17,24,22.20
2009,06,29,17,25,22.10
2009,06,29,17,26,22.00
2009,06,29,17,27,21.90
2009,06,29,17,28,21.90
2009,06,29,17,29,21.80
2009,06,29,17,30,21.80
2009,06,29,17,31,21.80
2009,06,29,17,32,21.80
2009,06,29,17,33,21.90